Regional Weather Roundup
Issued by NWS Northern Indiana

Home | Current Version | Previous Version | Graphics & Text | Print | Product List | Glossary On
Versions: 1 2 3 4 5 6 7 8 9 10 11 12 13 14 15 16 17 18 19 20 21 22 23 24 25 26 27 28 29 30 31 32 33 34 35 36 37 38 39 40 41 42 43 44 45 46 47 48 49 50
000
ASUS43 KIWX 201300
RWRIWX

KIWX WEATHER ROUNDUP
NATIONAL WEATHER SERVICE NORTHERN INDIANA
900 AM EDT SUN AUG 20 2017

NOTE: "FAIR" INDICATES FEW OR NO CLOUDS BELOW 12,000 FEET WITH NO
SIGNIFICANT WEATHER AND/OR OBSTRUCTIONS TO VISIBILITY.

* THESE STATIONS ARE NOT UNDER NWS QUALITY CONTROL. THEY ALSO MAY NOT
  REPORT WEATHER SUCH AS PRECIPITATION OR FOG.

INZ001>027-201400-
NORTHERN INDIANA

CITY           SKY/WX    TMP DP  RH WIND       PRES   REMARKS
GARY*          MOSUNNY   70  61  73 VRB5      30.05S
SOUTH BEND     SUNNY     67  62  84 E6        30.07F
GOSHEN         SUNNY     68  61  78 CALM      30.09R
MONTICELLO*    SUNNY     68  63  84 E5        30.05S
FORT WAYNE     MOSUNNY   68  62  81 CALM      30.09R
PERU/GRISSOM   SUNNY     69  63  81 SE6       30.06R

$$
INZ028>050-201400-
CENTRAL INDIANA

CITY           SKY/WX    TMP DP  RH WIND       PRES   REMARKS
LAFAYETTE      SUNNY     69  64  84 E5        30.04S
KOKOMO*        SUNNY     68  63  84 CALM      30.08R
MUNCIE*        SUNNY     74  62  66 SE6       30.08R
INDIANAPOLIS   MOSUNNY   72  66  81 CALM      30.06R

$$
MIZ043>046-050>051-056>058-064>065-071>073-077>080-201400-
SOUTHWEST LOWER MICHIGAN

CITY           SKY/WX    TMP DP  RH WIND       PRES   REMARKS
BATTLE CREEK   SUNNY     66  60  81 CALM      30.10R
BENTON HARBOR  SUNNY     67  60  78 SE5       30.06S
COLDWATER*     SUNNY     67  63  86 S3        30.10R
HILLSDALE*     SUNNY     64  59  82 CALM      30.11R
HOLLAND        SUNNY     66  59  78 S5        30.07S
GRAND RAPIDS   MOSUNNY   64  60  87 SE3       30.07F
KALAMAZOO      SUNNY     66  61  84 S5        30.09S
STURGIS*       SUNNY     66  61  83 S3        30.10R
THREE RIVERS*  FAIR      65  61  86 S3        30.10R

$$
OHZ001>008-015>018-024>025-201400-
NORTHWEST OHIO

CITY           SKY/WX    TMP DP  RH WIND       PRES   REMARKS
DEFIANCE       SUNNY     66  63  90 CALM      30.10R
FINDLAY        SUNNY     68  61  78 S6        30.10R
TOLEDO EXPRESS SUNNY     67  64  90 CALM      30.09R
TOLEDO METCALF SUNNY     68  64  87 SW6       30.11R
LIMA           MOSUNNY   69  62  78 SE3       30.11R

$$
AND FOR LAKE MICHIGAN COASTAL AND OPEN LAKE BUOY OBSERVATIONS

STATION/POSITION TEMP    WIND        PRES    VSBY  WAVE
                 AIR SEA DIR/SP/G                  HT/PER
                 (F)     (DEG/KT/KT) (MB)    (MI)  (FT/S)
CALUMET HARBOR    70     170/  4/  5 1016.6S
MICHIGAN CITY     68     130/  8/  9   N/A
BURNS HARBOR      72     160/  8/ 13 1017.6S
SAINT JOSEPH      64     150/  2/  5 1018.6
SOUTH LAKE BUOY   72 71  190/ 10/ 12 1017.0          1
4 MI NW BRIDGMAN  70 75  170/ 10/ 12 1017.4F         1
MICHIGAN CITY     70 74  160/ 10/ 14   N/A           1

$$
&&




USA.gov is the U.S. government's official web portal to all federal, state and local government web resources and services.